User: anonymous
Location: Monroe
(41.9160°N, 83.3980°W)
Time: 14:01:14
(UTC-04:00)
Language:

deb Explorer IX - Orbit

View from above orbital plane
View from above orbital plane
View from above satellite
View from above satellite

Ground track
Ground track

The orbit data is extracted from the following two-line orbital elements,

1 00085U 61004C   14230.71546044 -.00000223  00000-0 -31569-4 0   173
2 00085 038.7691 009.3697 0453610 088.2392 277.0228 14.01502820629057
Epoch (UTC): 18 August 2014 17:10:15
Eccentricity: 0.0453610
inclination: 38.7691°
perigee height: 559 km
apogee height: 1218 km
right ascension of ascending node: 9.3697°
argument of perigee: 88.2392°
revolutions per day: 14.01502820
mean anomaly at epoch: 277.0228°
orbit number at epoch: 62905

The dashed part of the orbit path shows where the satellite is in the earth's shadow,  

DLR